Tracking 22993 objects as of 12-May-2021
HD Live streaming from Space Station
objects crossing your sky now

INTELSAT 3-F7

Track INTELSAT 3-F7 now!
INTELSAT 3-F7 is classified as:


NORAD ID: 4376
Int'l Code: 1970-032A
Perigee: 35,772.3 km
Apogee: 35,796.0 km
Inclination: 2.4 °
Period: 1,435.6 minutes
Semi major axis: 42155 km
RCS: 0.003 m2 (small)
Launch date: April 23, 1970
Source: International Telecommunications Satellite Organization (ITSO)
Launch site: AIR FORCE EASTERN TEST RANGE (AFETR)
aabbcc
Your satellite tracking list
Your tracking list is empty




NASA's NSSDC Master Catalog

Two Line Element Set (TLE):
1 04376U 70032A   21131.11649434  .00000058  00000-0  00000-0 0  9995
2 04376   2.4100 278.0109 0002811  99.4404 260.4938  1.00306122 28678
Source of the keplerian elements: AFSPC